• Em Portugal
  • Lista de países
  • Para 7 dias
  • Temperatura da água
  • Mapas de satélite
  • Mapa do tempo
  • Widgets de tempo
  • user-avatar
    Iniciar Sessão

    Previsão horária em Slawomierz

    Hoje, 18 Outubro, Quinta-feira

    Tempo Temperatura Precipitação Vento Pressão Humidade
    00:00 +13°C° 0 mm 2 m/s 760 mmHg 71%
    01:00 +13°C° 0 mm 2 m/s 759 mmHg 71%
    02:00 +13°C° 0 mm 1 m/s 759 mmHg 73%
    03:00 +12°C° 0 mm 1 m/s 759 mmHg 74%
    04:00 +12°C° 0 mm 1 m/s 759 mmHg 75%
    05:00 +12°C° 0 mm 1 m/s 759 mmHg 76%
    06:00 +12°C° 0 mm 1 m/s 759 mmHg 77%
    07:00 +12°C° 0 mm 1 m/s 759 mmHg 74%
    08:00 +14°C° 0 mm 1 m/s 759 mmHg 69%
    09:00 +15°C° 0 mm 1 m/s 759 mmHg 63%
    10:00 +18°C° 0 mm 1 m/s 759 mmHg 57%
    11:00 +19°C° 0 mm 1 m/s 759 mmHg 56%
    12:00 +19°C° 0 mm 2 m/s 759 mmHg 54%
    13:00 +19°C° 0 mm 2 m/s 759 mmHg 53%
    14:00 +19°C° 0 mm 2 m/s 759 mmHg 59%
    15:00 +18°C° 0 mm 3 m/s 759 mmHg 65%
    16:00 +17°C° 0 mm 3 m/s 759 mmHg 71%
    17:00 +16°C° 0 mm 3 m/s 759 mmHg 77%
    18:00 +15°C° 0 mm 2 m/s 760 mmHg 84%
    19:00 +13°C° 0 mm 2 m/s 760 mmHg 90%
    20:00 +13°C° 0 mm 2 m/s 760 mmHg 90%
    21:00 +12°C° 0 mm 3 m/s 761 mmHg 90%
    22:00 +12°C° 0 mm 3 m/s 761 mmHg 90%
    23:00 +11°C° 0 mm 3 m/s 761 mmHg 89%

    Amanhã, 19 Outubro, Sexta-feira

    Tempo Temperatura Precipitação Vento Pressão Humidade
    00:00 +12°C° 0 mm 2 m/s 761 mmHg 88%
    01:00 +10°C° 0 mm 2 m/s 761 mmHg 87%
    02:00 +10°C° 0 mm 2 m/s 761 mmHg 89%
    03:00 +10°C° 0 mm 2 m/s 761 mmHg 90%
    04:00 +9°C° 0 mm 2 m/s 761 mmHg 92%
    05:00 +9°C° 0 mm 2 m/s 762 mmHg 92%
    06:00 +10°C° 0 mm 1 m/s 762 mmHg 93%
    07:00 +10°C° 0 mm 1 m/s 762 mmHg 94%
    08:00 +11°C° 0 mm 1 m/s 763 mmHg 85%
    09:00 +13°C° 0 mm 1 m/s 763 mmHg 76%
    10:00 +15°C° 0 mm 1 m/s 763 mmHg 67%
    11:00 +15°C° 0 mm 2 m/s 763 mmHg 63%
    12:00 +16°C° 0 mm 2 m/s 763 mmHg 60%
    13:00 +16°C° 0 mm 2 m/s 763 mmHg 56%
    14:00 +16°C° 0 mm 2 m/s 763 mmHg 59%
    15:00 +15°C° 0 mm 2 m/s 763 mmHg 61%
    16:00 +14°C° 0 mm 2 m/s 763 mmHg 64%
    17:00 +13°C° 0 mm 2 m/s 763 mmHg 69%
    18:00 +12°C° 0 mm 2 m/s 764 mmHg 75%
    19:00 +9°C° 0 mm 2 m/s 764 mmHg 80%
    20:00 +9°C° 0 mm 2 m/s 764 mmHg 81%
    21:00 +9°C° 0 mm 2 m/s 764 mmHg 83%
    22:00 +8°C° 0 mm 2 m/s 764 mmHg 84%
    23:00 +8°C° 0 mm 2 m/s 764 mmHg 86%

    Depois de amanhã, 20 Outubro, Sábado

    Tempo Temperatura Precipitação Vento Pressão Humidade
    00:00 +7°C° 0 mm 2 m/s 765 mmHg 88%
    01:00 +7°C° 0 mm 2 m/s 765 mmHg 90%
    02:00 +7°C° 0 mm 2 m/s 765 mmHg 91%
    03:00 +7°C° 0 mm 2 m/s 765 mmHg 92%
    04:00 +7°C° 0 mm 2 m/s 765 mmHg 93%
    05:00 +7°C° 0 mm 3 m/s 765 mmHg 92%
    06:00 +7°C° 0 mm 3 m/s 765 mmHg 92%
    07:00 +7°C° 0 mm 3 m/s 765 mmHg 92%
    08:00 +8°C° 0 mm 3 m/s 766 mmHg 84%
    09:00 +10°C° 0 mm 4 m/s 766 mmHg 77%
    10:00 +11°C° 0 mm 4 m/s 766 mmHg 69%
    11:00 +10°C° 0 mm 5 m/s 766 mmHg 67%
    12:00 +12°C° 0 mm 5 m/s 766 mmHg 64%
    13:00 +12°C° 0 mm 5 m/s 766 mmHg 61%
    14:00 +12°C° 0 mm 5 m/s 766 mmHg 65%
    15:00 +10°C° 0 mm 5 m/s 766 mmHg 68%
    16:00 +10°C° 0 mm 5 m/s 766 mmHg 72%
    17:00 +10°C° 0.1 mm 5 m/s 766 mmHg 75%
    18:00 +10°C° 0.1 mm 5 m/s 766 mmHg 77%
    19:00 +10°C° 0.1 mm 5 m/s 766 mmHg 80%
    20:00 +10°C° 0 mm 4 m/s 766 mmHg 82%
    21:00 +10°C° 0 mm 4 m/s 766 mmHg 85%
    22:00 +9°C° 0 mm 3 m/s 766 mmHg 88%
    23:00 +9°C° 0 mm 3 m/s 766 mmHg 89%

    21 Outubro, Domingo

    Tempo Temperatura Precipitação Vento Pressão Humidade
    00:00 +8°C° 0 mm 3 m/s 766 mmHg 90%
    01:00 +8°C° 0 mm 3 m/s 766 mmHg 91%
    02:00 +8°C° 0 mm 3 m/s 766 mmHg 91%
    03:00 +7°C° 0 mm 2 m/s 766 mmHg 92%
    04:00 +7°C° 0 mm 2 m/s 766 mmHg 93%
    05:00 +7°C° 0 mm 2 m/s 766 mmHg 94%
    06:00 +7°C° 0 mm 2 m/s 766 mmHg 94%
    07:00 +8°C° 0 mm 3 m/s 766 mmHg 95%
    08:00 +9°C° 0 mm 3 m/s 766 mmHg 91%
    09:00 +10°C° 0 mm 3 m/s 765 mmHg 86%
    10:00 +11°C° 0 mm 3 m/s 765 mmHg 81%
    11:00 +12°C° 0 mm 3 m/s 765 mmHg 81%
    12:00 +12°C° 0 mm 3 m/s 765 mmHg 80%
    13:00 +12°C° 0 mm 3 m/s 765 mmHg 79%
    14:00 +12°C° 0 mm 3 m/s 764 mmHg 80%
    15:00 +12°C° 0 mm 3 m/s 764 mmHg 81%
    16:00 +12°C° 0 mm 3 m/s 764 mmHg 82%
    17:00 +11°C° 0 mm 3 m/s 764 mmHg 84%
    18:00 +11°C° 0 mm 3 m/s 764 mmHg 86%
    19:00 +10°C° 0 mm 3 m/s 764 mmHg 87%
    20:00 +11°C° 0 mm 3 m/s 763 mmHg 85%
    21:00 +11°C° 0 mm 3 m/s 763 mmHg 83%
    22:00 +11°C° 0 mm 3 m/s 763 mmHg 81%
    23:00 +11°C° 0.1 mm 3 m/s 763 mmHg 80%

    22 Outubro, Segunda-feira

    Tempo Temperatura Precipitação Vento Pressão Humidade
    00:00 +11°C° 0.1 mm 4 m/s 762 mmHg 79%
    01:00 +11°C° 0.1 mm 4 m/s 762 mmHg 78%
    02:00 +11°C° 0.2 mm 4 m/s 762 mmHg 77%
    03:00 +11°C° 0.2 mm 4 m/s 762 mmHg 76%
    04:00 +11°C° 0.2 mm 4 m/s 761 mmHg 76%
    05:00 +11°C° 0.4 mm 4 m/s 761 mmHg 78%
    06:00 +10°C° 0.4 mm 5 m/s 761 mmHg 81%
    07:00 +10°C° 0.4 mm 5 m/s 762 mmHg 84%
    08:00 +10°C° 0.5 mm 5 m/s 762 mmHg 83%
    09:00 +10°C° 0.5 mm 5 m/s 762 mmHg 82%
    10:00 +10°C° 0.5 mm 5 m/s 763 mmHg 81%
    11:00 +10°C° 0.1 mm 5 m/s 763 mmHg 74%
    12:00 +10°C° 0.1 mm 5 m/s 763 mmHg 66%
    13:00 +10°C° 0.1 mm 5 m/s 763 mmHg 59%
    14:00 +10°C° 0 mm 5 m/s 763 mmHg 60%
    15:00 +10°C° 0 mm 4 m/s 763 mmHg 62%
    16:00 +10°C° 0 mm 4 m/s 763 mmHg 63%
    17:00 +8°C° 0 mm 4 m/s 763 mmHg 65%
    18:00 +8°C° 0 mm 4 m/s 763 mmHg 67%
    19:00 +8°C° 0 mm 4 m/s 763 mmHg 69%
    20:00 +7°C° 0 mm 4 m/s 763 mmHg 71%
    21:00 +7°C° 0 mm 4 m/s 763 mmHg 73%
    22:00 +7°C° 0 mm 4 m/s 762 mmHg 74%
    23:00 +7°C° 0.1 mm 4 m/s 762 mmHg 75%

    23 Outubro, Terça-feira

    Tempo Temperatura Precipitação Vento Pressão Humidade
    00:00 +7°C° 0.1 mm 4 m/s 761 mmHg 75%
    01:00 +7°C° 0.1 mm 4 m/s 761 mmHg 76%
    02:00 +7°C° 0.2 mm 4 m/s 760 mmHg 78%
    03:00 +6°C° 0.2 mm 4 m/s 759 mmHg 81%
    04:00 +6°C° 0.2 mm 4 m/s 759 mmHg 84%
    05:00 +6°C° 0.1 mm 5 m/s 758 mmHg 85%
    06:00 +5°C° 0.1 mm 5 m/s 757 mmHg 87%
    07:00 +5°C° 0.1 mm 5 m/s 756 mmHg 88%
    08:00 +4°C° 0.3 mm 6 m/s 755 mmHg 86%
    09:00 +5°C° 0.3 mm 6 m/s 754 mmHg 83%
    10:00 +5°C° 0.3 mm 7 m/s 753 mmHg 81%
    11:00 +6°C° 0.9 mm 7 m/s 752 mmHg 81%
    12:00 +7°C° 0.9 mm 6 m/s 751 mmHg 81%
    13:00 +8°C° 0.9 mm 6 m/s 750 mmHg 81%
    14:00 +8°C° 0.4 mm 6 m/s 750 mmHg 79%
    15:00 +8°C° 0.4 mm 5 m/s 749 mmHg 78%
    16:00 +8°C° 0.4 mm 5 m/s 749 mmHg 77%
    17:00 +8°C° 0.2 mm 5 m/s 749 mmHg 79%
    18:00 +7°C° 0.2 mm 5 m/s 750 mmHg 82%
    19:00 +6°C° 0.2 mm 5 m/s 750 mmHg 85%
    20:00 +7°C° 0.1 mm 6 m/s 750 mmHg 84%
    21:00 +7°C° 0.1 mm 6 m/s 751 mmHg 84%
    22:00 +6°C° 0.1 mm 7 m/s 752 mmHg 84%
    23:00 +6°C° 0.1 mm 7 m/s 752 mmHg 83%
    Mostrar mais